Datum;Grugatrasse Ruettenscheid_West;Grugatrasse Ruhr_Ost;Huyssenallee  Ruettenscheid_Sued;Huyssenallee Stadtkern_Nord
01.06.2018 00:00;1;3;0;3
01.06.2018 01:00;0;0;3;0
01.06.2018 02:00;0;0;1;1
01.06.2018 03:00;1;1;0;0
01.06.2018 04:00;1;1;0;1
01.06.2018 05:00;5;2;2;1
01.06.2018 06:00;23;7;10;9
01.06.2018 07:00;12;10;7;14
01.06.2018 08:00;9;2;2;9
01.06.2018 09:00;10;9;13;12
01.06.2018 10:00;12;22;6;21
01.06.2018 11:00;12;6;4;12
01.06.2018 12:00;15;19;5;10
01.06.2018 13:00;19;14;10;16
01.06.2018 14:00;32;38;12;12
01.06.2018 15:00;23;28;14;15
01.06.2018 16:00;20;23;20;15
01.06.2018 17:00;27;17;12;12
01.06.2018 18:00;22;13;10;8
01.06.2018 19:00;7;13;5;7
01.06.2018 20:00;5;4;7;7
01.06.2018 21:00;5;6;5;4
01.06.2018 22:00;1;1;5;4
01.06.2018 23:00;0;0;3;3
02.06.2018 00:00;1;1;1;3
02.06.2018 01:00;0;0;0;0
02.06.2018 02:00;2;0;0;0
02.06.2018 03:00;0;0;0;1
02.06.2018 04:00;1;0;0;1
02.06.2018 05:00;1;2;0;2
02.06.2018 06:00;3;5;4;3
02.06.2018 07:00;8;8;1;6
02.06.2018 08:00;9;15;1;7
02.06.2018 09:00;30;34;6;10
02.06.2018 10:00;64;52;9;23
02.06.2018 11:00;46;81;11;26
02.06.2018 12:00;88;72;10;42
02.06.2018 13:00;66;87;22;26
02.06.2018 14:00;94;88;14;13
02.06.2018 15:00;80;122;17;16
02.06.2018 16:00;115;62;26;22
02.06.2018 17:00;89;82;25;24
02.06.2018 18:00;44;40;10;23
02.06.2018 19:00;66;32;7;4
02.06.2018 20:00;38;21;6;8
02.06.2018 21:00;17;20;9;4
02.06.2018 22:00;10;2;4;9
02.06.2018 23:00;5;1;7;4
03.06.2018 00:00;0;0;3;4
03.06.2018 01:00;1;1;6;5
03.06.2018 02:00;0;1;1;0
03.06.2018 03:00;0;1;0;1
03.06.2018 04:00;5;2;0;0
03.06.2018 05:00;0;0;1;1
03.06.2018 06:00;4;6;2;3
03.06.2018 07:00;8;13;3;5
03.06.2018 08:00;20;22;0;14
03.06.2018 09:00;49;50;4;8
03.06.2018 10:00;95;119;3;28
03.06.2018 11:00;118;123;8;14
03.06.2018 12:00;164;104;24;28
03.06.2018 13:00;120;163;24;20
03.06.2018 14:00;159;129;30;9
03.06.2018 15:00;140;148;15;37
03.06.2018 16:00;161;103;17;15
03.06.2018 17:00;112;108;22;17
03.06.2018 18:00;98;80;30;20
03.06.2018 19:00;72;61;11;11
03.06.2018 20:00;53;19;11;17
03.06.2018 21:00;14;10;11;8
03.06.2018 22:00;9;3;3;2
03.06.2018 23:00;0;2;3;1
04.06.2018 00:00;0;0;0;0
04.06.2018 01:00;0;0;0;0
04.06.2018 02:00;0;0;0;0
04.06.2018 03:00;0;0;0;1
04.06.2018 04:00;0;3;1;3
04.06.2018 05:00;22;7;3;5
04.06.2018 06:00;87;21;17;32
04.06.2018 07:00;124;56;21;94
04.06.2018 08:00;82;41;30;84
04.06.2018 09:00;73;49;18;37
04.06.2018 10:00;60;74;12;34
04.06.2018 11:00;64;64;17;26
04.06.2018 12:00;75;56;29;23
04.06.2018 13:00;72;60;26;24
04.06.2018 14:00;83;81;28;22
04.06.2018 15:00;81;117;30;34
04.06.2018 16:00;85;155;54;48
04.06.2018 17:00;104;157;67;43
04.06.2018 18:00;90;136;67;38
04.06.2018 19:00;103;100;41;19
04.06.2018 20:00;84;42;31;12
04.06.2018 21:00;28;36;20;9
04.06.2018 22:00;6;16;9;7
04.06.2018 23:00;2;7;4;2
05.06.2018 00:00;0;0;1;1
05.06.2018 01:00;0;0;0;0
05.06.2018 02:00;0;0;2;0
05.06.2018 03:00;0;1;0;0
05.06.2018 04:00;1;2;0;2
05.06.2018 05:00;26;8;3;6
05.06.2018 06:00;90;26;16;38
05.06.2018 07:00;124;49;24;68
05.06.2018 08:00;104;43;26;88
05.06.2018 09:00;58;43;24;48
05.06.2018 10:00;31;59;11;21
05.06.2018 11:00;60;49;22;26
05.06.2018 12:00;48;44;22;21
05.06.2018 13:00;62;67;33;24
05.06.2018 14:00;54;60;28;24
05.06.2018 15:00;63;98;42;42
05.06.2018 16:00;89;156;47;40
05.06.2018 17:00;112;143;62;58
05.06.2018 18:00;103;155;72;44
05.06.2018 19:00;103;86;45;19
05.06.2018 20:00;74;52;36;12
05.06.2018 21:00;36;29;22;10
05.06.2018 22:00;13;11;15;6
05.06.2018 23:00;2;1;4;3
06.06.2018 00:00;0;4;1;0
06.06.2018 01:00;0;0;2;4
06.06.2018 02:00;0;0;0;0
06.06.2018 03:00;1;1;1;0
06.06.2018 04:00;0;1;1;1
06.06.2018 05:00;22;10;2;8
06.06.2018 06:00;82;24;16;30
06.06.2018 07:00;123;60;22;64
06.06.2018 08:00;94;50;24;113
06.06.2018 09:00;79;55;26;50
06.06.2018 10:00;75;75;10;24
06.06.2018 11:00;82;77;20;29
06.06.2018 12:00;89;86;22;25
06.06.2018 13:00;78;77;34;23
06.06.2018 14:00;68;82;39;26
06.06.2018 15:00;83;139;42;27
06.06.2018 16:00;96;164;64;41
06.06.2018 17:00;112;177;70;41
06.06.2018 18:00;144;186;70;36
06.06.2018 19:00;113;132;35;34
06.06.2018 20:00;112;68;21;11
06.06.2018 21:00;79;39;12;26
06.06.2018 22:00;40;18;16;12
06.06.2018 23:00;5;11;9;5
07.06.2018 00:00;1;2;1;5
07.06.2018 01:00;2;0;0;4
07.06.2018 02:00;0;0;0;0
07.06.2018 03:00;0;0;0;1
07.06.2018 04:00;0;2;0;1
07.06.2018 05:00;21;11;1;6
07.06.2018 06:00;76;23;12;25
07.06.2018 07:00;125;54;25;69
07.06.2018 08:00;109;49;21;90
07.06.2018 09:00;53;47;16;47
07.06.2018 10:00;60;58;11;34
07.06.2018 11:00;54;81;11;33
07.06.2018 12:00;56;50;32;28
07.06.2018 13:00;61;53;21;18
07.06.2018 14:00;59;66;30;21
07.06.2018 15:00;56;113;50;33
07.06.2018 16:00;64;118;54;34
07.06.2018 17:00;85;118;54;52
07.06.2018 18:00;50;50;15;13
07.06.2018 19:00;10;26;16;5
07.06.2018 20:00;8;10;14;7
07.06.2018 21:00;6;5;9;6
07.06.2018 22:00;3;6;6;4
07.06.2018 23:00;0;2;4;4
08.06.2018 00:00;0;0;0;1
08.06.2018 01:00;0;0;0;0
08.06.2018 02:00;0;0;1;0
08.06.2018 03:00;0;1;1;0
08.06.2018 04:00;2;1;0;0
08.06.2018 05:00;10;3;1;4
08.06.2018 06:00;50;11;11;22
08.06.2018 07:00;56;27;11;52
08.06.2018 08:00;38;25;13;45
08.06.2018 09:00;21;25;15;29
08.06.2018 10:00;34;37;10;19
08.06.2018 11:00;23;17;13;11
08.06.2018 12:00;11;31;13;8
08.06.2018 13:00;14;30;18;9
08.06.2018 14:00;20;35;21;13
08.06.2018 15:00;17;31;22;29
08.06.2018 16:00;26;51;25;27
08.06.2018 17:00;47;53;29;34
08.06.2018 18:00;44;33;29;56
08.06.2018 19:00;36;56;32;21
08.06.2018 20:00;19;18;29;16
08.06.2018 21:00;16;11;85;13
08.06.2018 22:00;8;7;16;11
08.06.2018 23:00;9;2;9;7
09.06.2018 00:00;5;3;15;5
09.06.2018 01:00;6;0;3;1
09.06.2018 02:00;2;0;2;3
09.06.2018 03:00;0;1;0;1
09.06.2018 04:00;1;1;2;0
09.06.2018 05:00;0;3;2;1
09.06.2018 06:00;5;7;1;2
09.06.2018 07:00;8;10;2;8
09.06.2018 08:00;12;26;4;15
09.06.2018 09:00;37;62;8;17
09.06.2018 10:00;86;90;19;28
09.06.2018 11:00;88;110;21;21
09.06.2018 12:00;105;117;24;23
09.06.2018 13:00;107;94;21;11
09.06.2018 14:00;94;88;15;23
09.06.2018 15:00;119;85;27;10
09.06.2018 16:00;114;94;21;26
09.06.2018 17:00;104;67;20;21
09.06.2018 18:00;74;56;15;13
09.06.2018 19:00;120;67;14;12
09.06.2018 20:00;42;37;22;7
09.06.2018 21:00;44;36;6;11
09.06.2018 22:00;18;15;4;13
09.06.2018 23:00;8;31;3;4
10.06.2018 00:00;7;11;4;5
10.06.2018 01:00;1;8;3;8
10.06.2018 02:00;1;0;0;4
10.06.2018 03:00;3;0;0;1
10.06.2018 04:00;2;0;0;0
10.06.2018 05:00;2;2;0;2
10.06.2018 06:00;4;5;5;1
10.06.2018 07:00;9;7;2;6
10.06.2018 08:00;17;21;0;8
10.06.2018 09:00;26;49;5;13
10.06.2018 10:00;77;112;14;15
10.06.2018 11:00;84;112;11;18
10.06.2018 12:00;112;112;9;18
10.06.2018 13:00;160;153;8;20
10.06.2018 14:00;185;125;26;27
10.06.2018 15:00;174;129;9;26
10.06.2018 16:00;157;123;24;26
10.06.2018 17:00;122;107;17;26
10.06.2018 18:00;148;76;14;16
10.06.2018 19:00;81;56;19;12
10.06.2018 20:00;58;46;13;15
10.06.2018 21:00;19;9;11;8
10.06.2018 22:00;10;5;3;6
10.06.2018 23:00;0;0;2;3
11.06.2018 00:00;2;1;2;0
11.06.2018 01:00;0;0;0;1
11.06.2018 02:00;0;0;0;0
11.06.2018 03:00;0;0;0;0
11.06.2018 04:00;0;0;3;1
11.06.2018 05:00;23;3;3;7
11.06.2018 06:00;77;24;19;31
11.06.2018 07:00;134;46;26;67
11.06.2018 08:00;73;40;19;69
11.06.2018 09:00;57;33;20;42
11.06.2018 10:00;38;57;17;32
11.06.2018 11:00;61;52;18;24
11.06.2018 12:00;52;32;33;27
11.06.2018 13:00;82;69;22;29
11.06.2018 14:00;57;79;36;16
11.06.2018 15:00;73;106;35;32
11.06.2018 16:00;97;152;40;41
11.06.2018 17:00;96;135;63;50
11.06.2018 18:00;90;119;62;26
11.06.2018 19:00;70;69;35;22
11.06.2018 20:00;60;40;28;16
11.06.2018 21:00;20;30;23;8
11.06.2018 22:00;10;11;10;4
11.06.2018 23:00;3;2;6;2
12.06.2018 00:00;1;1;1;2
12.06.2018 01:00;0;1;1;0
12.06.2018 02:00;0;0;1;1
12.06.2018 03:00;0;0;0;0
12.06.2018 04:00;0;1;2;1
12.06.2018 05:00;16;4;3;8
12.06.2018 06:00;77;19;18;39
12.06.2018 07:00;115;43;23;71
12.06.2018 08:00;90;41;23;69
12.06.2018 09:00;65;43;9;47
12.06.2018 10:00;42;41;11;28
12.06.2018 11:00;40;56;16;26
12.06.2018 12:00;48;36;28;23
12.06.2018 13:00;43;48;20;34
12.06.2018 14:00;48;52;27;23
12.06.2018 15:00;67;71;37;33
12.06.2018 16:00;48;71;31;27
12.06.2018 17:00;54;96;56;39
12.06.2018 18:00;56;88;66;36
12.06.2018 19:00;48;63;38;14
12.06.2018 20:00;25;29;26;9
12.06.2018 21:00;19;11;18;13
12.06.2018 22:00;13;10;14;3
12.06.2018 23:00;1;1;4;3
13.06.2018 00:00;1;0;2;1
13.06.2018 01:00;0;0;0;2
13.06.2018 02:00;0;0;0;1
13.06.2018 03:00;0;0;1;1
13.06.2018 04:00;2;1;3;3
13.06.2018 05:00;16;5;3;4
13.06.2018 06:00;67;16;11;28
13.06.2018 07:00;101;34;18;60
13.06.2018 08:00;89;31;21;75
13.06.2018 09:00;49;31;20;44
13.06.2018 10:00;50;40;9;26
13.06.2018 11:00;48;41;14;26
13.06.2018 12:00;34;23;20;21
13.06.2018 13:00;41;52;25;27
13.06.2018 14:00;40;53;21;18
13.06.2018 15:00;45;82;13;9
13.06.2018 16:00;55;86;0;1
13.06.2018 17:00;101;105;3;0
13.06.2018 18:00;76;87;14;1
13.06.2018 19:00;81;60;3;0
13.06.2018 20:00;34;67;9;14
13.06.2018 21:00;23;50;18;12
13.06.2018 22:00;10;20;17;9
13.06.2018 23:00;3;4;7;3
14.06.2018 00:00;0;0;0;4
14.06.2018 01:00;0;1;1;0
14.06.2018 02:00;0;0;0;2
14.06.2018 03:00;0;0;0;0
14.06.2018 04:00;1;1;2;0
14.06.2018 05:00;14;9;3;2
14.06.2018 06:00;63;15;16;24
14.06.2018 07:00;96;43;19;62
14.06.2018 08:00;70;44;26;81
14.06.2018 09:00;49;44;16;32
14.06.2018 10:00;52;68;17;31
14.06.2018 11:00;75;69;19;26
14.06.2018 12:00;53;56;17;28
14.06.2018 13:00;86;56;20;23
14.06.2018 14:00;63;76;31;18
14.06.2018 15:00;71;86;30;35
14.06.2018 16:00;69;92;52;25
14.06.2018 17:00;64;66;36;27
14.06.2018 18:00;22;28;24;17
14.06.2018 19:00;16;34;35;16
14.06.2018 20:00;14;12;17;12
14.06.2018 21:00;9;13;5;3
14.06.2018 22:00;2;1;6;5
14.06.2018 23:00;3;3;5;0
15.06.2018 00:00;1;1;6;1
15.06.2018 01:00;0;1;1;0
15.06.2018 02:00;2;0;0;0
15.06.2018 03:00;0;0;0;0
15.06.2018 04:00;0;0;3;0
15.06.2018 05:00;11;6;1;4
15.06.2018 06:00;46;12;10;22
15.06.2018 07:00;73;39;12;54
15.06.2018 08:00;69;28;25;57
15.06.2018 09:00;45;41;15;31
15.06.2018 10:00;43;56;8;25
15.06.2018 11:00;35;45;33;22
15.06.2018 12:00;54;53;33;28
15.06.2018 13:00;59;97;25;19
15.06.2018 14:00;84;85;37;30
15.06.2018 15:00;83;103;43;30
15.06.2018 16:00;139;130;41;40
15.06.2018 17:00;93;106;39;45
15.06.2018 18:00;78;98;36;31
15.06.2018 19:00;71;67;26;24
15.06.2018 20:00;47;34;16;15
15.06.2018 21:00;29;24;11;5
15.06.2018 22:00;19;11;14;10
15.06.2018 23:00;6;7;9;3
16.06.2018 00:00;7;4;3;4
16.06.2018 01:00;1;1;2;0
16.06.2018 02:00;1;0;3;1
16.06.2018 03:00;0;2;2;2
16.06.2018 04:00;1;1;2;0
16.06.2018 05:00;2;2;1;4
16.06.2018 06:00;2;5;0;2
16.06.2018 07:00;18;13;0;6
16.06.2018 08:00;28;27;2;11
16.06.2018 09:00;33;73;4;10
16.06.2018 10:00;97;76;10;22
16.06.2018 11:00;91;139;17;30
16.06.2018 12:00;142;106;20;37
16.06.2018 13:00;109;127;20;32
16.06.2018 14:00;147;117;18;26
16.06.2018 15:00;91;86;31;29
16.06.2018 16:00;73;111;24;24
16.06.2018 17:00;125;77;18;22
16.06.2018 18:00;88;70;9;20
16.06.2018 19:00;58;8;16;6
16.06.2018 20:00;37;16;13;9
16.06.2018 21:00;9;16;11;3
16.06.2018 22:00;6;12;7;5
16.06.2018 23:00;7;0;4;8
17.06.2018 00:00;1;0;2;6
17.06.2018 01:00;3;0;1;0
17.06.2018 02:00;1;8;1;1
17.06.2018 03:00;1;0;0;0
17.06.2018 04:00;0;0;1;0
17.06.2018 05:00;2;0;0;4
17.06.2018 06:00;2;4;2;3
17.06.2018 07:00;6;9;1;4
17.06.2018 08:00;24;27;3;3
17.06.2018 09:00;53;53;3;13
17.06.2018 10:00;94;108;9;22
17.06.2018 11:00;120;158;18;24
17.06.2018 12:00;154;140;12;14
17.06.2018 13:00;115;111;15;25
17.06.2018 14:00;107;75;21;10
17.06.2018 15:00;111;81;13;22
17.06.2018 16:00;59;80;20;23
17.06.2018 17:00;46;24;11;13
17.06.2018 18:00;27;21;14;7
17.06.2018 19:00;67;44;12;11
17.06.2018 20:00;49;17;9;13
17.06.2018 21:00;11;17;9;7
17.06.2018 22:00;3;5;6;5
17.06.2018 23:00;0;0;4;3
18.06.2018 00:00;3;0;0;1
18.06.2018 01:00;0;1;0;0
18.06.2018 02:00;0;0;0;0
18.06.2018 03:00;0;0;0;0
18.06.2018 04:00;1;1;2;1
18.06.2018 05:00;15;3;3;4
18.06.2018 06:00;61;19;7;25
18.06.2018 07:00;119;34;16;67
18.06.2018 08:00;78;40;21;74
18.06.2018 09:00;42;22;19;33
18.06.2018 10:00;42;41;13;31
18.06.2018 11:00;42;47;20;20
18.06.2018 12:00;34;36;18;20
18.06.2018 13:00;56;31;18;15
18.06.2018 14:00;52;56;23;17
18.06.2018 15:00;40;60;34;16
18.06.2018 16:00;58;122;37;39
18.06.2018 17:00;39;89;54;28
18.06.2018 18:00;46;73;43;40
18.06.2018 19:00;70;43;31;16
18.06.2018 20:00;49;60;26;10
18.06.2018 21:00;18;13;13;4
18.06.2018 22:00;5;8;9;9
18.06.2018 23:00;5;2;9;2
19.06.2018 00:00;1;0;1;0
19.06.2018 01:00;0;0;1;1
19.06.2018 02:00;0;0;1;0
19.06.2018 03:00;0;0;0;1
19.06.2018 04:00;4;1;0;0
19.06.2018 05:00;15;5;2;6
19.06.2018 06:00;72;24;12;29
19.06.2018 07:00;117;45;14;60
19.06.2018 08:00;77;43;23;77
19.06.2018 09:00;40;39;12;27
19.06.2018 10:00;23;31;5;18
19.06.2018 11:00;15;20;6;11
19.06.2018 12:00;28;24;17;17
19.06.2018 13:00;41;45;21;13
19.06.2018 14:00;18;45;23;24
19.06.2018 15:00;43;77;37;27
19.06.2018 16:00;75;102;48;33
19.06.2018 17:00;66;125;45;51
19.06.2018 18:00;76;103;52;31
19.06.2018 19:00;68;72;29;18
19.06.2018 20:00;41;30;23;11
19.06.2018 21:00;25;22;22;10
19.06.2018 22:00;9;5;11;8
19.06.2018 23:00;0;4;4;4
20.06.2018 00:00;0;0;1;3
20.06.2018 01:00;0;0;0;0
20.06.2018 02:00;0;2;2;0
20.06.2018 03:00;0;0;0;1
20.06.2018 04:00;0;1;1;1
20.06.2018 05:00;17;7;1;6
20.06.2018 06:00;69;22;18;32
20.06.2018 07:00;130;43;25;67
20.06.2018 08:00;95;55;19;98
20.06.2018 09:00;54;51;12;38
20.06.2018 10:00;81;80;17;18
20.06.2018 11:00;84;76;17;31
20.06.2018 12:00;65;95;21;32
20.06.2018 13:00;89;83;23;34
20.06.2018 14:00;83;92;27;23
20.06.2018 15:00;81;117;38;28
20.06.2018 16:00;131;181;59;31
20.06.2018 17:00;145;183;64;46
20.06.2018 18:00;141;173;51;33
20.06.2018 19:00;118;118;36;18
20.06.2018 20:00;93;62;19;20
20.06.2018 21:00;76;38;21;19
20.06.2018 22:00;26;17;21;12
20.06.2018 23:00;3;1;6;5
21.06.2018 00:00;0;1;7;3
21.06.2018 01:00;1;0;1;1
21.06.2018 02:00;1;1;2;1
21.06.2018 03:00;0;1;0;0
21.06.2018 04:00;1;1;1;1
21.06.2018 05:00;13;5;2;4
21.06.2018 06:00;70;15;12;29
21.06.2018 07:00;98;24;16;62
21.06.2018 08:00;43;26;15;57
21.06.2018 09:00;18;14;12;33
21.06.2018 10:00;21;18;7;21
21.06.2018 11:00;22;27;10;21
21.06.2018 12:00;28;34;17;21
21.06.2018 13:00;39;39;20;19
21.06.2018 14:00;41;71;21;21
21.06.2018 15:00;43;73;25;22
21.06.2018 16:00;62;103;51;32
21.06.2018 17:00;53;88;43;42
21.06.2018 18:00;47;64;39;23
21.06.2018 19:00;54;60;21;17
21.06.2018 20:00;36;24;23;11
21.06.2018 21:00;7;16;6;8
21.06.2018 22:00;3;10;11;10
21.06.2018 23:00;2;2;5;3
22.06.2018 00:00;0;2;4;4
22.06.2018 01:00;1;0;1;1
22.06.2018 02:00;0;0;1;0
22.06.2018 03:00;0;0;0;0
22.06.2018 04:00;0;2;1;1
22.06.2018 05:00;13;7;3;4
22.06.2018 06:00;44;16;13;19
22.06.2018 07:00;73;36;21;43
22.06.2018 08:00;51;26;9;55
22.06.2018 09:00;19;22;5;25
22.06.2018 10:00;20;27;6;17
22.06.2018 11:00;20;21;12;25
22.06.2018 12:00;22;19;15;20
22.06.2018 13:00;25;49;27;13
22.06.2018 14:00;30;48;27;17
22.06.2018 15:00;32;54;30;21
22.06.2018 16:00;41;60;26;27
22.06.2018 17:00;56;46;34;32
22.06.2018 18:00;33;49;38;29
22.06.2018 19:00;35;34;22;20
22.06.2018 20:00;24;22;15;13
22.06.2018 21:00;25;15;20;8
22.06.2018 22:00;11;11;4;8
22.06.2018 23:00;6;2;12;6
23.06.2018 00:00;3;2;2;5
23.06.2018 01:00;3;0;5;5
23.06.2018 02:00;1;0;1;0
23.06.2018 03:00;0;2;1;2
23.06.2018 04:00;1;1;3;1
23.06.2018 05:00;3;1;0;1
23.06.2018 06:00;5;3;2;4
23.06.2018 07:00;3;6;3;13
23.06.2018 08:00;12;12;1;8
23.06.2018 09:00;30;40;7;11
23.06.2018 10:00;37;59;6;21
23.06.2018 11:00;63;79;9;21
23.06.2018 12:00;74;59;16;19
23.06.2018 13:00;80;77;21;12
23.06.2018 14:00;66;58;30;13
23.06.2018 15:00;56;77;16;16
23.06.2018 16:00;59;52;16;19
23.06.2018 17:00;87;43;14;16
23.06.2018 18:00;63;46;18;11
23.06.2018 19:00;42;31;5;9
23.06.2018 20:00;12;9;17;11
23.06.2018 21:00;12;6;2;4
23.06.2018 22:00;16;20;8;5
23.06.2018 23:00;17;1;7;13
24.06.2018 00:00;3;7;5;6
24.06.2018 01:00;4;3;2;7
24.06.2018 02:00;3;0;0;3
24.06.2018 03:00;0;2;0;0
24.06.2018 04:00;1;2;0;1
24.06.2018 05:00;1;0;0;1
24.06.2018 06:00;0;2;0;1
24.06.2018 07:00;5;13;2;5
24.06.2018 08:00;12;32;0;6
24.06.2018 09:00;24;36;0;8
24.06.2018 10:00;50;74;2;11
24.06.2018 11:00;87;130;5;10
24.06.2018 12:00;113;133;12;17
24.06.2018 13:00;148;121;19;23
24.06.2018 14:00;146;104;19;34
24.06.2018 15:00;131;95;21;20
24.06.2018 16:00;121;92;16;21
24.06.2018 17:00;68;68;15;22
24.06.2018 18:00;63;36;14;15
24.06.2018 19:00;56;29;4;9
24.06.2018 20:00;22;14;9;5
24.06.2018 21:00;8;9;4;6
24.06.2018 22:00;5;4;3;1
24.06.2018 23:00;3;1;3;1
25.06.2018 00:00;0;0;1;1
25.06.2018 01:00;0;0;1;2
25.06.2018 02:00;0;0;1;2
25.06.2018 03:00;0;0;0;0
25.06.2018 04:00;0;0;2;1
25.06.2018 05:00;18;5;2;5
25.06.2018 06:00;48;15;16;32
25.06.2018 07:00;106;33;20;57
25.06.2018 08:00;79;35;19;64
25.06.2018 09:00;37;25;14;37
25.06.2018 10:00;27;40;6;23
25.06.2018 11:00;36;22;15;24
25.06.2018 12:00;34;48;19;14
25.06.2018 13:00;42;38;24;23
25.06.2018 14:00;40;42;14;19
25.06.2018 15:00;80;70;45;35
25.06.2018 16:00;62;120;39;37
25.06.2018 17:00;69;106;62;49
25.06.2018 18:00;102;108;54;41
25.06.2018 19:00;75;69;40;9
25.06.2018 20:00;46;39;28;10
25.06.2018 21:00;27;20;21;4
25.06.2018 22:00;10;13;9;7
25.06.2018 23:00;3;2;3;4
26.06.2018 00:00;0;0;0;1
26.06.2018 01:00;0;0;0;1
26.06.2018 02:00;0;0;0;3
26.06.2018 03:00;0;0;0;0
26.06.2018 04:00;0;1;1;1
26.06.2018 05:00;21;10;1;8
26.06.2018 06:00;71;12;16;31
26.06.2018 07:00;109;48;25;78
26.06.2018 08:00;84;47;22;72
26.06.2018 09:00;58;41;14;58
26.06.2018 10:00;54;77;16;25
26.06.2018 11:00;48;58;20;24
26.06.2018 12:00;47;70;26;31
26.06.2018 13:00;80;62;28;14
26.06.2018 14:00;72;74;30;27
26.06.2018 15:00;65;90;41;28
26.06.2018 16:00;79;114;47;42
26.06.2018 17:00;92;124;77;48
26.06.2018 18:00;88;126;65;43
26.06.2018 19:00;71;75;39;14
26.06.2018 20:00;70;58;38;20
26.06.2018 21:00;27;26;10;18
26.06.2018 22:00;11;9;11;14
26.06.2018 23:00;8;4;7;6
27.06.2018 00:00;1;0;0;1
27.06.2018 01:00;0;0;1;0
27.06.2018 02:00;0;0;0;0
27.06.2018 03:00;0;0;0;1
27.06.2018 04:00;1;0;1;1
27.06.2018 05:00;22;5;3;6
27.06.2018 06:00;80;19;14;32
27.06.2018 07:00;127;43;24;85
27.06.2018 08:00;87;38;27;101
27.06.2018 09:00;63;64;15;49
27.06.2018 10:00;72;77;24;33
27.06.2018 11:00;64;101;21;18
27.06.2018 12:00;73;90;28;28
27.06.2018 13:00;111;92;29;37
27.06.2018 14:00;105;106;37;26
27.06.2018 15:00;127;186;71;32
27.06.2018 16:00;55;84;32;18
27.06.2018 17:00;35;54;38;28
27.06.2018 18:00;89;152;52;31
27.06.2018 19:00;77;83;29;24
27.06.2018 20:00;66;39;21;12
27.06.2018 21:00;44;26;17;10
27.06.2018 22:00;19;11;12;15
27.06.2018 23:00;1;4;4;4
28.06.2018 00:00;0;1;1;5
28.06.2018 01:00;1;0;2;1
28.06.2018 02:00;0;0;0;0
28.06.2018 03:00;0;1;0;1
28.06.2018 04:00;2;0;2;2
28.06.2018 05:00;21;8;3;7
28.06.2018 06:00;73;16;16;34
28.06.2018 07:00;122;46;19;80
28.06.2018 08:00;84;39;20;71
28.06.2018 09:00;63;51;17;47
28.06.2018 10:00;71;80;17;34
28.06.2018 11:00;86;76;20;28
28.06.2018 12:00;64;69;28;19
28.06.2018 13:00;63;81;23;21
28.06.2018 14:00;99;103;24;30
28.06.2018 15:00;73;98;38;27
28.06.2018 16:00;101;148;59;42
28.06.2018 17:00;113;180;77;64
28.06.2018 18:00;94;144;54;47
28.06.2018 19:00;82;96;37;27
28.06.2018 20:00;64;50;23;16
28.06.2018 21:00;47;27;20;10
28.06.2018 22:00;24;17;16;8
28.06.2018 23:00;2;5;4;3
29.06.2018 00:00;3;2;1;2
29.06.2018 01:00;1;1;0;0
29.06.2018 02:00;0;1;4;0
29.06.2018 03:00;0;2;0;0
29.06.2018 04:00;1;0;0;0
29.06.2018 05:00;22;8;2;6
29.06.2018 06:00;70;23;14;34
29.06.2018 07:00;120;51;19;66
29.06.2018 08:00;86;37;22;69
29.06.2018 09:00;63;43;11;43
29.06.2018 10:00;60;80;10;37
29.06.2018 11:00;83;103;16;17
29.06.2018 12:00;81;81;34;26
29.06.2018 13:00;75;100;35;25
29.06.2018 14:00;94;134;48;27
29.06.2018 15:00;125;136;39;41
29.06.2018 16:00;78;136;39;33
29.06.2018 17:00;111;131;49;38
29.06.2018 18:00;102;112;39;26
29.06.2018 19:00;74;90;21;18
29.06.2018 20:00;72;49;24;13
29.06.2018 21:00;72;37;11;13
29.06.2018 22:00;33;12;11;4
29.06.2018 23:00;15;8;8;8
30.06.2018 00:00;6;8;6;9
30.06.2018 01:00;2;4;6;6
30.06.2018 02:00;0;1;1;5
30.06.2018 03:00;1;2;1;2
30.06.2018 04:00;2;0;1;1
30.06.2018 05:00;5;4;2;0
30.06.2018 06:00;6;8;1;2
30.06.2018 07:00;21;10;1;11
30.06.2018 08:00;37;38;8;9
30.06.2018 09:00;53;86;9;15
30.06.2018 10:00;117;85;24;24
30.06.2018 11:00;115;116;24;27
30.06.2018 12:00;130;147;20;36
30.06.2018 13:00;98;122;24;21
30.06.2018 14:00;111;124;35;19
30.06.2018 15:00;107;119;24;38
30.06.2018 16:00;98;83;13;51
30.06.2018 17:00;92;70;18;20
30.06.2018 18:00;84;80;12;25
30.06.2018 19:00;75;61;18;15
30.06.2018 20:00;79;44;8;13
30.06.2018 21:00;45;25;5;7
30.06.2018 22:00;25;15;7;9
30.06.2018 23:00;22;13;9;8
